KD4EG Weather Reports


time (UTC)temp
C
wind
direction
speed
KPH
gust
KPH
rain 1hr
cm
rain 24hr
cm
rain mn
cm
humidity
%
barometer
mb
20260504050328 10 283 0.0 0.0 0.00 0.00 0.00 57 1018.8
20260504045825 10 292 1.6 1.6 0.00 0.00 0.00 56 1018.8
20260504045320 11 284 0.0 1.6 0.00 0.00 0.00 54 1018.5
20260504044818 11 301 1.6 1.6 0.00 0.00 0.00 52 1018.5
20260504044315 11 296 0.0 1.6 0.00 0.00 0.00 52 1018.5
20260504043812 11 287 1.6 3.2 0.00 0.00 0.00 51 1018.5
20260504043309 11 283 3.2 3.2 0.00 0.00 0.00 51 1018.4
20260504042807 11 306 4.8 4.8 0.00 0.00 0.00 53 1018.2
20260504042304 10 301 1.6 3.2 0.00 0.00 0.00 54 1018.1
20260504041800 10 315 1.6 1.6 0.00 0.00 0.00 59 1018.3
20260504041255 10 321 1.6 1.6 0.00 0.00 0.00 58 1018.1
20260504040752 10 337 3.2 3.2 0.00 0.00 0.00 57 1018.3
20260504040249 10 308 1.6 1.6 0.00 0.00 0.00 59 1018.5
20260504035745 10 301 1.6 1.6 0.00 0.00 0.00 56 1018.3
20260504035242 10 301 3.2 3.2 0.00 0.00 0.00 55 1018.6
20260504034740 10 307 3.2 3.2 0.00 0.00 0.00 53 1018.3
20260504034237 10 300 1.6 1.6 0.00 0.00 0.00 58 1018.2
20260504033734 10 304 3.2 3.2 0.00 0.00 0.00 56 1018.4
20260504033232 10 326 4.8 8.0 0.00 0.00 0.00 57 1018.3
20260504032728 9 295 1.6 1.6 0.00 0.00 0.00 60 1018.3
20260504032226 8 310 0.0 1.6 0.00 0.00 0.00 62 1018.2
20260504031722 8 330 1.6 1.6 0.00 0.00 0.00 62 1018.1
20260504031220 8 299 1.6 1.6 0.00 0.00 0.00 63 1018.5
20260504030715 8 300 1.6 1.6 0.00 0.00 0.00 62 1018.4
20260504030213 8 299 1.6 1.6 0.00 0.00 0.00 61 1018.3
20260504025709 8 305 1.6 1.6 0.00 0.00 0.00 61 1018.5
20260504025206 8 305 1.6 1.6 0.00 0.00 0.00 60 1018.4
20260504024703 8 303 1.6 1.6 0.00 0.00 0.00 60 1018.5
20260504024200 8 307 0.0 1.6 0.00 0.00 0.00 60 1018.5
20260504023656 9 292 1.6 1.6 0.00 0.00 0.00 59 1018.4
20260504023152 9 311 0.0 0.0 0.00 0.00 0.00 58 1018.6
20260504022649 9 300 1.6 1.6 0.00 0.00 0.00 57 1018.5
20260504022144 10 301 1.6 3.2 0.00 0.00 0.00 56 1018.3
20260504021643 10 298 1.6 3.2 0.00 0.00 0.00 54 1018.3
20260504021139 10 328 3.2 3.2 0.00 0.00 0.00 55 1018.0
20260504020636 10 305 1.6 1.6 0.00 0.00 0.00 57 1018.1
20260504020132 10 294 1.6 3.2 0.00 0.00 0.00 56 1018.2
20260504015629 10 281 4.8 4.8 0.00 0.00 0.00 55 1018.0
20260504015125 10 302 3.2 3.2 0.00 0.00 0.00 53 1018.0
20260504014621 10 286 3.2 3.2 0.00 0.00 0.00 54 1017.9
20260504014119 10 265 1.6 3.2 0.00 0.00 0.00 54 1017.9
20260504013616 10 300 3.2 3.2 0.00 0.00 0.00 53 1017.8
20260504013113 10 299 1.6 3.2 0.00 0.00 0.00 53 1017.6
20260504012610 10 298 4.8 4.8 0.00 0.00 0.00 54 1017.8
20260504012108 10 295 1.6 1.6 0.00 0.00 0.00 54 1017.4
20260504011605 10 292 3.2 3.2 0.00 0.00 0.00 54 1017.6
20260504011101 11 291 1.6 1.6 0.00 0.00 0.00 55 1017.5
20260504010556 11 296 1.6 1.6 0.00 0.00 0.00 55 1017.5
20260504010053 11 279 3.2 3.2 0.00 0.00 0.00 55 1017.5
20260504005549 11 302 1.6 3.2 0.00 0.00 0.00 55 1017.4
20260504005047 11 290 3.2 3.2 0.00 0.00 0.00 55 1017.5
20260504004545 11 292 1.6 1.6 0.00 0.00 0.00 55 1017.2
20260504004041 12 301 3.2 3.2 0.00 0.00 0.00 54 1017.3
20260504003537 12 294 1.6 1.6 0.00 0.00 0.00 53 1017.1
20260504003034 12 294 1.6 1.6 0.00 0.00 0.00 52 1017.1
20260504002531 12 316 1.6 1.6 0.00 0.00 0.00 50 1017.1
20260504002029 12 318 1.6 1.6 0.00 0.00 0.00 51 1017.1
20260504001527 13 302 3.2 3.2 0.00 0.00 0.00 50 1017.0
20260504001022 13 298 3.2 3.2 0.00 0.00 0.00 49 1017.1
20260504000520 13 300 3.2 3.2 0.00 0.00 0.00 46 1017.0
20260504000017 14 296 1.6 3.2 0.00 0.00 0.00 43 1017.1
20260503235515 15 285 1.6 3.2 0.00 0.00 0.00 37 1016.9
20260503235012 15 311 1.6 3.2 0.00 0.00 0.00 36 1017.1
20260503234509 15 304 1.6 1.6 0.00 0.00 0.00 36 1017.2
20260503234008 16 287 1.6 3.2 0.00 0.00 0.00 34 1017.0
20260503233503 17 306 1.6 1.6 0.00 0.00 0.00 31 1016.9
20260503233000 17 319 3.2 3.2 0.00 0.00 0.00 29 1017.2
20260503232457 17 327 3.2 3.2 0.00 0.00 0.00 29 1017.1
20260503231955 17 283 3.2 3.2 0.00 0.00 0.00 29 1017.1
20260503231452 18 299 4.8 4.8 0.00 0.00 0.00 28 1017.2
20260503230948 18 296 4.8 8.0 0.00 0.00 0.00 27 1017.1
20260503230445 18 302 3.2 4.8 0.00 0.00 0.00 28 1016.8
20260503225943 18 283 1.6 1.6 0.00 0.00 0.00 27 1016.8
20260503225439 18 151 4.8 8.0 0.00 0.00 0.00 27 1016.7
20260503224935 18 296 1.6 3.2 0.00 0.00 0.00 27 1016.9
20260503224432 18 296 3.2 3.2 0.00 0.00 0.00 27 1017.0
20260503223930 17 313 8.0 11.3 0.00 0.00 0.00 26 1017.1
20260503223427 18 346 12.9 16.1 0.00 0.00 0.00 27 1017.1
20260503222922 18 283 6.4 12.9 0.00 0.00 0.00 27 1016.9
20260503222421 18 276 6.4 9.7 0.00 0.00 0.00 27 1017.0
20260503221919 18 347 6.4 9.7 0.00 0.00 0.00 26 1017.0
20260503221417 18 292 4.8 4.8 0.00 0.00 0.00 27 1017.1
20260503220914 18 318 11.3 12.9 0.00 0.00 0.00 27 1017.0
20260503220410 18 306 4.8 9.7 0.00 0.00 0.00 27 1017.0
20260503215908 18 304 3.2 3.2 0.00 0.00 0.00 28 1017.2
20260503215404 18 257 6.4 9.7 0.00 0.00 0.00 27 1017.2
20260503214902 18 191 4.8 8.0 0.00 0.00 0.00 27 1017.1
20260503214359 18 254 3.2 3.2 0.00 0.00 0.00 27 1017.0
20260503213856 18 311 3.2 4.8 0.00 0.00 0.00 28 1017.3
20260503213354 18 5 9.7 11.3 0.00 0.00 0.00 27 1017.3
20260503212850 18 28 3.2 9.7 0.00 0.00 0.00 27 1017.4
20260503212349 18 165 6.4 9.7 0.00 0.00 0.00 28 1017.4
20260503211845 18 284 4.8 8.0 0.00 0.00 0.00 28 1017.2
20260503211342 18 218 4.8 4.8 0.00 0.00 0.00 28 1017.3
20260503210837 18 287 9.7 12.9 0.00 0.00 0.00 28 1017.4
20260503210335 18 133 8.0 9.7 0.00 0.00 0.00 29 1017.4
20260503205830 17 180 12.9 16.1 0.00 0.00 0.00 28 1017.4
20260503205327 18 169 8.0 11.3 0.00 0.00 0.00 28 1017.6
20260503204823 17 236 4.8 4.8 0.00 0.00 0.00 29 1017.6
20260503204321 18 178 6.4 11.3 0.00 0.00 0.00 28 1017.5
20260503203818 18 325 6.4 8.0 0.00 0.00 0.00 27 1017.7
20260503203315 18 189 8.0 9.7 0.00 0.00 0.00 28 1017.6
20260503202812 17 289 1.6 3.2 0.00 0.00 0.00 28 1017.5
20260503202310 17 337 4.8 9.7 0.00 0.00 0.00 28 1018.0
20260503201808 17 247 3.2 3.2 0.00 0.00 0.00 29 1017.8
20260503201305 18 300 4.8 4.8 0.00 0.00 0.00 27 1017.7
20260503200802 18 295 4.8 8.0 0.00 0.00 0.00 28 1018.0
20260503200257 17 294 4.8 8.0 0.00 0.00 0.00 30 1017.9
20260503195755 17 148 8.0 11.3 0.00 0.00 0.00 29 1018.1
20260503195252 17 282 3.2 3.2 0.00 0.00 0.00 30 1018.4
20260503194749 17 273 3.2 4.8 0.00 0.00 0.00 30 1018.3
20260503194245 18 263 6.4 8.0 0.00 0.00 0.00 29 1018.4
20260503193741 17 348 6.4 8.0 0.00 0.00 0.00 29 1018.5
20260503193237 17 336 4.8 4.8 0.00 0.00 0.00 29 1018.5
20260503192733 16 193 3.2 3.2 0.00 0.00 0.00 33 1018.4
20260503192228 16 11 1.6 1.6 0.00 0.00 0.00 34 1018.5
20260503191726 17 189 8.0 9.7 0.00 0.00 0.00 31 1018.7
20260503191222 17 314 6.4 8.0 0.00 0.00 0.00 30 1018.8
20260503190720 16 200 3.2 3.2 0.00 0.00 0.00 32 1018.8
20260503190216 16 292 1.6 1.6 0.00 0.00 0.00 29 1018.7
20260503185714 16 287 8.0 9.7 0.00 0.00 0.00 29 1019.4
20260503185209 16 276 6.4 9.7 0.00 0.00 0.00 30 1019.0
20260503184703 16 266 9.7 12.9 0.00 0.00 0.00 29 1019.3
20260503184200 16 314 12.9 17.7 0.00 0.00 0.00 28 1019.4
20260503183656 17 305 6.4 8.0 0.00 0.00 0.00 31 1019.6
20260503183154 16 282 3.2 3.2 0.00 0.00 0.00 30 1019.7
20260503182652 16 321 4.8 4.8 0.00 0.00 0.00 30 1019.7
20260503182150 16 286 11.3 12.9 0.00 0.00 0.00 31 1019.9
20260503181646 16 275 9.7 12.9 0.00 0.00 0.00 32 1019.8
20260503181143 15 221 8.0 11.3 0.00 0.00 0.00 33 1019.8
20260503180640 16 307 4.8 8.0 0.00 0.00 0.00 33 1020.0
20260503180138 15 318 3.2 8.0 0.00 0.00 0.00 34 1020.1
20260503175635 16 286 3.2 3.2 0.00 0.00 0.00 33 1020.1
20260503175132 15 325 3.2 4.8 0.00 0.00 0.00 34 1020.0
20260503174629 15 287 8.0 9.7 0.00 0.00 0.00 34 1020.1
20260503174126 15 45 0.0 1.6 0.00 0.00 0.00 36 1020.1
20260503173621 15 73 8.0 9.7 0.00 0.00 0.00 36 1020.2
20260503173117 14 296 4.8 8.0 0.00 0.00 0.00 35 1020.2
20260503172615 14 327 8.0 9.7 0.00 0.00 0.00 35 1020.5
20260503172112 15 270 4.8 8.0 0.00 0.00 0.00 35 1020.6
20260503171609 14 197 9.7 16.1 0.00 0.00 0.00 35 1020.7
20260503171106 14 294 3.2 3.2 0.00 0.00 0.00 38 1020.7
20260503170603 13 279 3.2 3.2 0.00 0.00 0.00 40 1020.9
20260503150954 11 346 4.8 9.7 0.00 0.00 0.00 42 1022.0
20260503150451 10 347 8.0 11.3 0.00 0.00 0.00 44 1022.0
20260503131344 8 277 3.2 3.2 0.00 0.00 0.00 50 1022.0
20260503130841 7 298 6.4 8.0 0.00 0.00 0.00 53 1021.7
20260503130339 7 342 6.4 8.0 0.00 0.00 0.00 52 1021.7
20260503110733 3 322 0.0 0.0 0.00 0.00 0.00 80 1020.7
20260503110230 3 305 0.0 0.0 0.00 0.00 0.00 79 1020.7
20260503100156 2 320 1.6 1.6 0.00 0.00 0.00 83 1019.9
20260503090115 2 315 3.2 3.2 0.00 0.00 0.00 84 1018.8
20260503081551 3 312 1.6 3.2 0.00 0.00 0.00 82 1018.5
20260503081048 3 310 1.6 1.6 0.00 0.00 0.00 82 1018.5
20260503080544 3 310 0.0 0.0 0.00 0.00 0.00 82 1018.3
20260503072518 3 311 1.6 1.6 0.00 0.00 0.00 80 1018.2
20260503072015 3 299 1.6 1.6 0.00 0.00 0.00 81 1018.1
20260503071512 4 312 0.0 1.6 0.00 0.00 0.00 80 1018.0
20260503071008 4 314 0.0 0.0 0.00 0.00 0.00 80 1017.9
20260503070505 4 329 0.0 0.0 0.00 0.00 0.00 80 1018.0